TOW2231 FHAW-EGVN

Flight info

Callsign TOW2231
Flight time N/A
Altitude 38000
Route ANPIR/N0481F370 DCT GARKI/N0477F380 DCT TURED/N0472F390 DCT PIVSA DCT NARAT DCT UPESA DCT NOCUT DCT ETIBA/N0469F400 DCT APASO DCT ROSTA/M082F390 DCT ABALO/N0471F400 DCT DEMZO DCT PELUS DCT IDREL DCT RUPEP DCT MANOX/M082F390 DCT LUPOV DCT NILAV DCT OMOKO/N0473F390 DCT LND DCT VLN
Aircraft A332/H-SDE3GHIJ2J3J5M1RVWXY/LB2D1

Departure

Time 2026-05-08 23:13
Airport RAF Ascension Island (FHAW)

Arrival

Time N/A
Airport RAF Brize Norton (EGVN)
Time Latitude Longitude Altitude Speed Heading
2026-05-08 22:57 -7.96893 -14.40353 285 ft 0 kts 60°
2026-05-08 23:07 -7.96887 -14.40346 285 ft 3 kts 49°
2026-05-08 23:08 -7.96867 -14.40332 285 ft 4 kts 33°
2026-05-08 23:08 -7.96842 -14.40315 285 ft 5 kts 33°
2026-05-08 23:08 -7.96818 -14.40301 285 ft 4 kts 30°
2026-05-08 23:08 -7.96789 -14.40285 285 ft 5 kts 28°
2026-05-08 23:09 -7.96755 -14.40268 285 ft 6 kts 28°
2026-05-08 23:09 -7.96719 -14.40265 285 ft 5 kts 340°
2026-05-08 23:09 -7.96694 -14.40295 284 ft 6 kts 298°
2026-05-08 23:09 -7.96669 -14.40342 283 ft 9 kts 298°
2026-05-08 23:10 -7.96631 -14.40384 282 ft 9 kts 315°
2026-05-08 23:10 -7.96581 -14.40431 281 ft 11 kts 316°
2026-05-08 23:10 -7.96521 -14.40489 280 ft 13 kts 316°
2026-05-08 23:10 -7.96450 -14.40556 278 ft 14 kts 316°
2026-05-08 23:11 -7.96401 -14.40590 278 ft 1 kts
2026-05-08 23:11 -7.96398 -14.40586 278 ft 1 kts 33°
2026-05-08 23:11 -7.96381 -14.40575 278 ft 4 kts 33°
2026-05-08 23:11 -7.96370 -14.40556 278 ft 2 kts 71°
2026-05-08 23:12 -7.96371 -14.40544 279 ft 1 kts 94°
2026-05-08 23:12 -7.96374 -14.40532 279 ft 3 kts 106°
2026-05-08 23:12 -7.96386 -14.40507 279 ft 8 kts 117°
2026-05-08 23:12 -7.96474 -14.40333 283 ft 54 kts 116°
2026-05-08 23:13 -7.96727 -14.39831 296 ft 105 kts 116°
2026-05-08 23:13 -7.97126 -14.39021 314 ft 148 kts 118°
2026-05-08 23:13 -7.97590 -14.38109 860 ft 152 kts 118°
2026-05-08 23:13 -7.98139 -14.37194 1423 ft 152 kts 121°
2026-05-08 23:14 -7.98718 -14.36243 1699 ft 167 kts 121°
2026-05-08 23:14 -7.99341 -14.35188 1997 ft 181 kts 120°
2026-05-08 23:14 -8.00116 -14.34176 2431 ft 188 kts 143°
2026-05-08 23:14 -8.01422 -14.33865 2768 ft 206 kts 183°
2026-05-08 23:15 -8.02806 -14.34465 2919 ft 240 kts 219°
2026-05-08 23:15 -8.03681 -14.35992 3097 ft 270 kts 256°
2026-05-08 23:15 -8.03516 -14.37914 3489 ft 281 kts 293°
2026-05-08 23:15 -8.02310 -14.39424 4138 ft 280 kts 327°
2026-05-08 23:16 -8.00553 -14.40299 4673 ft 283 kts 335°
2026-05-08 23:16 -7.98992 -14.41480 5273 ft 284 kts 311°
2026-05-08 23:16 -7.97796 -14.43054 5939 ft 281 kts 305°
2026-05-08 23:16 -7.96681 -14.44662 6592 ft 281 kts 304°
2026-05-08 23:17 -7.95572 -14.46260 7143 ft 282 kts 304°
2026-05-08 23:17 -7.94436 -14.47879 7732 ft 283 kts 305°
2026-05-08 23:17 -7.93289 -14.49502 8308 ft 284 kts 305°
2026-05-08 23:17 -7.92132 -14.51129 8901 ft 286 kts 306°
2026-05-08 23:18 -7.90969 -14.52762 9493 ft 287 kts 306°
2026-05-08 23:18 -7.89796 -14.54404 10062 ft 289 kts 306°
2026-05-08 23:18 -7.88612 -14.56062 10332 ft 301 kts 306°
2026-05-08 23:18 -7.87356 -14.57819 10533 ft 315 kts 306°
2026-05-08 23:19 -7.86038 -14.59662 10724 ft 333 kts 306°
2026-05-08 23:19 -7.84644 -14.61611 10924 ft 350 kts 306°
2026-05-08 23:19 -7.83185 -14.63650 11120 ft 366 kts 306°
2026-05-08 23:19 -7.81664 -14.65775 11356 ft 379 kts 306°
2026-05-08 23:20 -7.80107 -14.67950 11774 ft 385 kts 306°
2026-05-08 23:20 -7.78547 -14.70130 12222 ft 390 kts 306°
2026-05-08 23:20 -7.76943 -14.72371 12710 ft 395 kts 306°
2026-05-08 23:20 -7.75328 -14.74627 13194 ft 399 kts 306°
2026-05-08 23:21 -7.73690 -14.76914 13619 ft 404 kts 306°
2026-05-08 23:21 -7.72027 -14.79236 13997 ft 411 kts 306°